ATLAS 5 CENTAUR DEB, 44670

Orbit data source: Space-Track

ATLAS 5 CENTAUR DEB, 44670 is space debris in HEO originally from a launch on Wed, 17 Oct 2018 UTC launched from the Air Force Eastern Test Range (AFETR). Debris objects in space refer to the collection of defunct objects orbiting the Earth. Examples of debris include non-operational satellites, rocket bodies, and fragments generated from explosions, collisions, or faulty payload assembly.

Loading next visibility...
Identifier
44670, 2018-079AG
Orbit
HEO
Last TLE update
2 days ago
Origin
Flag of USUnited Launch Alliance/Lockheed Martin (US)
Manufacturer
ULA Decatur
Mission
Spacecraft
Bus & Motor
Unknown
Mass
Unknown
Launch date (UTC)
2018-10-17 (7 years ago)
Launch vehicle
Unknown
Launch site
Air Force Eastern Test Range (AFETR)
Object type
Payload
Rocket body
Debris
Shape & HBR
Unknown
Radar Cross Section
Large (>1 m²)

Expand to show TLE details & history

TLE from 2 days ago
0 ATLAS 5 CENTAUR DEB
1 44670U 18079AG  25180.90400033 -.00000131  00000-0  00000-0 0  9997
2 44670  12.8964  65.3570 4640848 257.0648  48.7433  1.82912348 40613
Epoch: 2025-06-29T21:41Z
TLE epoch observation values (Epoch: 2025-06-29T21:41:45.628Z)
Latitude
0.00003°
Longitude
-178.30139°
Altitude
18,376.89 km
Speed
4.253 km/s
True Right ascension
04h 21m 26s
True Declination
0° 00' 00"
Sunlit
Object was in daylight at epoch
Visualization orbit readout
Latitude
8.58657°
Longitude
-137.34068°
Altitude
29,253.385 km
Speed
2.874 km/s
Apparent Right ascension
06h 43m 17s
Apparent Declination
1° 50' 35"
Sunlit
Object is in daylight
Visualization observer readout
Local Sidereal Time
15:49:03
Azimuth
305.397° NW
Elevation
-32.336°
Doppler factor
1
Orbital elements
Apogee altitude
34,974.662 km
Perigee altitude
8,758.687 km
Semi-major axis
28,244.812 km
Eccentricity
0.46408
Inclination
12.8964°
RAAN
65.357°
Arg. of periapsis
257.0648°
True anomaly
Unknown
Mean anomaly
48.7433°
Eccentric anomaly
Unknown
Mean motion
0.45723 °/min
Orbital period
787.35 mins
BSTAR
0
Loading maneuver chart data...
Loading SW <> Apogee altitude chart data...

ATLAS 5 CENTAUR DEB Visibility forecast

Observer location: undefined°, undefined°

Span
Click to sort rows by Start time (UTC) header in descending order
Start Az.
Max El. time (UTC)
Max El. Az.
Max El.
End time (UTC)
End Az.
698 mins2025-07-02 13:58:41.913Z209.938° SW2025-07-02 22:01:41.913Z142.424° SSE38.25°2025-07-03 01:36:41.913Z119.627° SE
|